Flag for Austria Weather past 2 weeks in Klagenfurt, Carinthia, Austria

Now
27 °F

Clear.


Feels Like: 27 °F
Forecast: 21 / 35 °F
Wind: 2 mph from North

Location: Klagenfurt-Flughafen

Current Time: Jan 29, 2015 at 7:32:37 AM

Latest Report: Jan 29, 2015 at 6:50 AM


Visibility: 10 mi

Pressure: 29.56 "Hg

Humidity: 80%

Dew point: 21 °F

Location of KlagenfurtLocation

Historic Weather in Klagenfurt — Graph

°F

Klagenfurt temperature yesterday

Maximum temperature yesterday: 43 °F (at 2:20 PM)
Minimum temperature yesterday: 21 °F (at 4:20 AM)
Average temperature yesterday: 29 °F

Past Weeks' High & Low Weather Summary

 TemperatureHumidityPressure
High52 °F (Jan 16, 1:50 PM)100% (Jan 14, 10:20 PM)30.24 "Hg (Jan 14, 10:20 PM)
Low21 °F (Jan 28, 4:20 AM)34% (Jan 25, 3:50 PM)29.56 "Hg (Jan 29, 5:50 AM)
Average34 °F84%29.97 "Hg
* Reported Jan 14 6:20 AM — Jan 29 6:20 AM, Klagenfurt, Weather by CustomWeather, © 2014

Note: Actual official high and low records may vary slightly from our data, if they occured in-between our weather recording intervals... More about our weather records

Advertising

Klagenfurt weather history for previous 24 hours

 ConditionsComfort  
Time TempWeatherWind HumidityBarometerVisibility
6:20 AM
Jan 29
27 °FPassing clouds.3 mph86%29.56 "HgN/A
5:50 AM27 °FClear.5 mph80%29.56 "Hg10 mi
5:20 AM27 °FClear.2 mph80%29.59 "Hg10 mi
4:50 AM27 °FClear.2 mph86%29.62 "Hg10 mi
4:20 AM27 °FClear.2 mph80%29.62 "Hg10 mi
3:50 AM27 °FPassing clouds.3 mph80%29.62 "HgN/A
3:20 AM25 °FClear.2 mph86%29.65 "Hg10 mi
2:50 AM25 °FClear.2 mph86%29.65 "Hg10 mi
2:20 AM25 °FPassing clouds.2 mph86%29.68 "HgN/A
1:50 AM25 °FPassing clouds.3 mph86%29.68 "HgN/A
1:20 AM25 °FPassing clouds.2 mph86%29.71 "HgN/A
12:50 AM25 °FClear.3 mph86%29.71 "Hg10 mi
12:20 AM25 °FPassing clouds.1 mph86%29.74 "HgN/A
11:50 PM
Jan 28
25 °FCold.3 mph86%29.77 "HgN/A
11:20 PM25 °FClear.3 mph86%29.77 "Hg10 mi
10:50 PM25 °FClear.1 mph86%29.80 "Hg10 mi
10:20 PM27 °FClear.2 mph80%29.80 "Hg10 mi
9:50 PM27 °FClear.6 mph80%29.80 "Hg10 mi
9:20 PM27 °FClear.2 mph80%29.83 "Hg10 mi
8:50 PM28 °FClear.2 mph74%29.83 "Hg10 mi
8:20 PM28 °FClear.5 mph74%29.86 "Hg10 mi
7:50 PM28 °FClear.5 mph74%29.86 "Hg10 mi
7:20 PM28 °FClear.2 mph74%29.86 "Hg10 mi
6:50 PM30 °FClear.1 mph69%29.89 "Hg10 mi
6:20 PM30 °FClear.2 mph75%29.89 "Hg10 mi
5:50 PM32 °FClear.1 mph64%29.89 "Hg10 mi
5:20 PM34 °FClear.1 mph60%29.89 "Hg10 mi
4:50 PM37 °FPassing clouds.3 mph48%29.89 "HgN/A
4:20 PM39 °FPassing clouds.3 mph48%29.92 "HgN/A
3:50 PM41 °FPassing clouds.5 mph42%29.92 "HgN/A
3:20 PM41 °FPassing clouds.5 mph49%29.92 "HgN/A
2:50 PM41 °FPassing clouds.2 mph42%29.92 "HgN/A
2:20 PM43 °FPassing clouds.2 mph42%29.95 "HgN/A
1:50 PM41 °FPassing clouds.2 mph49%29.95 "HgN/A
1:20 PM39 °FPassing clouds.3 mph56%29.98 "HgN/A
12:50 PM39 °FPassing clouds.3 mph52%30.01 "HgN/A
12:20 PM37 °FPassing clouds.1 mph60%30.01 "HgN/A
11:50 AM36 °FPassing clouds.2 mph65%30.04 "HgN/A
11:20 AM34 °FPassing clouds.2 mph70%30.04 "HgN/A
10:50 AM34 °FPassing clouds.1 mph65%30.04 "HgN/A
10:20 AM32 °FPassing clouds.3 mph69%30.07 "HgN/A
9:50 AM28 °FPassing clouds.2 mph80%30.07 "HgN/A
9:20 AM27 °FPassing clouds.3 mph80%30.07 "HgN/A
8:50 AM23 °FSunny.3 mph86%30.07 "Hg10 mi
8:20 AM23 °FSunny.6 mph86%30.07 "Hg10 mi
7:50 AM21 °FPassing clouds.3 mph86%30.07 "HgN/A
7:20 AM21 °FClear.5 mph93%30.07 "Hg10 mi
Weather by CustomWeather, © 2014

See weather overviewHow to use our weather pages